| time (UTC) | temp F | wind direction | speed MPH | gust MPH | rain 1hr in | rain 24hr in | rain mn in | humidity % | barometer mb |
| 20260507232023 | 59 | 96 | 13.0 | 26.0 | 0.00 | 0.53 | 0.21 | 69 | 1010.6 |
| 20260507231523 | 59 | 96 | 13.0 | 26.0 | 0.00 | 0.53 | 0.21 | 69 | 1010.7 |
| 20260507231023 | 59 | 96 | 12.0 | 30.0 | 0.00 | 0.53 | 0.21 | 70 | 1010.6 |
| 20260507230522 | 59 | 97 | 13.0 | 30.0 | 0.00 | 0.53 | 0.21 | 70 | 1010.8 |
| 20260507230035 | 60 | 96 | 16.0 | 28.0 | 0.00 | 0.53 | 0.21 | 70 | 1010.7 |
| 20260507225519 | 60 | 97 | 18.0 | 28.0 | 0.00 | 0.53 | 0.21 | 69 | 1010.6 |
| 20260507225019 | 60 | 96 | 15.0 | 27.0 | 0.00 | 0.53 | 0.21 | 69 | 1010.5 |
| 20260507224519 | 60 | 96 | 15.0 | 27.0 | 0.00 | 0.53 | 0.21 | 69 | 1010.5 |
| 20260507224018 | 61 | 96 | 13.0 | 23.0 | 0.00 | 0.53 | 0.21 | 69 | 1010.4 |
| 20260507223523 | 61 | 96 | 14.0 | 22.0 | 0.00 | 0.53 | 0.21 | 69 | 1010.4 |
| 20260507223023 | 61 | 96 | 10.0 | 22.0 | 0.00 | 0.53 | 0.21 | 69 | 1010.2 |
| 20260507222015 | 62 | 96 | 11.0 | 18.0 | 0.00 | 0.53 | 0.21 | 69 | 1009.9 |
| 20260507221514 | 62 | 96 | 7.0 | 20.0 | 0.00 | 0.53 | 0.21 | 70 | 1009.9 |
| 20260507221015 | 62 | 96 | 9.0 | 20.0 | 0.00 | 0.53 | 0.21 | 70 | 1009.8 |
| 20260507220515 | 62 | 96 | 7.0 | 22.0 | 0.00 | 0.53 | 0.21 | 70 | 1009.6 |
| 20260507220014 | 62 | 96 | 12.0 | 28.0 | 0.00 | 0.53 | 0.21 | 70 | 1009.5 |
| 20260507215513 | 62 | 96 | 19.0 | 30.0 | 0.00 | 0.53 | 0.21 | 69 | 1009.3 |
| 20260507215013 | 63 | 97 | 18.0 | 30.0 | 0.00 | 0.53 | 0.21 | 69 | 1009.1 |
| 20260507214512 | 64 | 96 | 15.0 | 27.0 | 0.00 | 0.53 | 0.21 | 69 | 1009.0 |
| 20260507214012 | 65 | 96 | 14.0 | 25.0 | 0.00 | 0.53 | 0.21 | 69 | 1008.6 |
| 20260507213511 | 65 | 96 | 13.0 | 25.0 | 0.00 | 0.53 | 0.21 | 68 | 1008.5 |
| 20260507213009 | 66 | 96 | 13.0 | 25.0 | 0.00 | 0.53 | 0.21 | 69 | 1008.5 |
| 20260507212017 | 65 | 96 | 14.0 | 23.0 | 0.00 | 0.53 | 0.21 | 69 | 1008.4 |
| 20260507211513 | 66 | 96 | 17.0 | 22.0 | 0.00 | 0.53 | 0.21 | 69 | 1008.4 |
| 20260507211011 | 65 | 96 | 12.0 | 22.0 | 0.00 | 0.53 | 0.21 | 68 | 1008.2 |
| 20260507210514 | 66 | 96 | 14.0 | 25.0 | 0.00 | 0.53 | 0.21 | 68 | 1008.2 |
| 20260507210010 | 67 | 96 | 12.0 | 26.0 | 0.00 | 0.53 | 0.21 | 67 | 1008.3 |
| 20260507205509 | 67 | 96 | 13.0 | 26.0 | 0.00 | 0.53 | 0.21 | 68 | 1008.3 |
| 20260507205009 | 67 | 96 | 13.0 | 27.0 | 0.00 | 0.53 | 0.21 | 68 | 1008.2 |
| 20260507204509 | 67 | 96 | 14.0 | 28.0 | 0.00 | 0.53 | 0.21 | 68 | 1008.1 |
| 20260507204008 | 67 | 96 | 11.0 | 25.0 | 0.00 | 0.53 | 0.21 | 68 | 1008.0 |
| 20260507203509 | 67 | 96 | 13.0 | 19.0 | 0.00 | 0.53 | 0.21 | 68 | 1008.1 |
| 20260507203022 | 69 | 96 | 12.0 | 19.0 | 0.00 | 0.53 | 0.21 | 67 | 1008.0 |
| 20260507202006 | 68 | 96 | 7.0 | 21.0 | 0.00 | 0.53 | 0.21 | 69 | 1008.0 |
| 20260507201504 | 68 | 96 | 15.0 | 22.0 | 0.00 | 0.53 | 0.21 | 68 | 1008.1 |
| 20260507201006 | 68 | 96 | 13.0 | 22.0 | 0.00 | 0.53 | 0.21 | 68 | 1007.9 |
| 20260507200503 | 68 | 96 | 8.0 | 19.0 | 0.00 | 0.53 | 0.21 | 69 | 1007.8 |
| 20260507200005 | 68 | 96 | 10.0 | 26.0 | 0.00 | 0.53 | 0.21 | 69 | 1007.9 |
| 20260507195502 | 69 | 96 | 10.0 | 17.0 | 0.00 | 0.53 | 0.21 | 68 | 1007.9 |
| 20260507195004 | 69 | 96 | 8.0 | 17.0 | 0.00 | 0.53 | 0.21 | 69 | 1007.9 |
| 20260507194501 | 70 | 96 | 7.0 | 17.0 | 0.00 | 0.53 | 0.21 | 68 | 1007.8 |
| 20260507194002 | 69 | 96 | 7.0 | 14.0 | 0.00 | 0.53 | 0.21 | 69 | 1007.7 |
| 20260507193502 | 69 | 96 | 8.0 | 17.0 | 0.00 | 0.53 | 0.21 | 69 | 1007.7 |
| 20260507193004 | 70 | 96 | 3.0 | 13.0 | 0.00 | 0.53 | 0.21 | 69 | 1007.5 |
| 20260507192002 | 70 | 96 | 7.0 | 15.0 | 0.00 | 0.53 | 0.21 | 69 | 1007.7 |
| 20260507191503 | 71 | 96 | 6.0 | 15.0 | 0.00 | 0.53 | 0.21 | 69 | 1007.7 |
| 20260507191003 | 71 | 96 | 9.0 | 14.0 | 0.00 | 0.53 | 0.21 | 69 | 1007.6 |
| 20260507190502 | 71 | 96 | 8.0 | 14.0 | 0.00 | 0.53 | 0.21 | 68 | 1007.6 |
| 20260507190003 | 72 | 96 | 8.0 | 14.0 | 0.00 | 0.53 | 0.21 | 68 | 1007.8 |
| 20260507185600 | 72 | 96 | 3.0 | 8.0 | 0.00 | 0.53 | 0.21 | 68 | 1007.8 |
| 20260507185502 | 72 | 96 | 0.0 | 6.0 | 0.00 | 0.53 | 0.21 | 68 | 1007.7 |
| 20260507185100 | 72 | 96 | 1.0 | 3.0 | 0.00 | 0.53 | 0.21 | 70 | 1007.9 |
| 20260507184601 | 72 | 96 | 0.0 | 9.0 | 0.00 | 0.53 | 0.21 | 70 | 1007.8 |
| 20260507184101 | 71 | 96 | 2.0 | 10.0 | 0.00 | 0.53 | 0.21 | 70 | 1007.9 |
| 20260507183603 | 71 | 96 | 5.0 | 14.0 | 0.00 | 0.53 | 0.21 | 70 | 1007.9 |
| 20260507183100 | 71 | 96 | 6.0 | 14.0 | 0.00 | 0.53 | 0.21 | 69 | 1007.7 |
| 20260507182059 | 72 | 96 | 4.0 | 12.0 | 0.00 | 0.53 | 0.21 | 70 | 1007.8 |
| 20260507181606 | 72 | 96 | 4.0 | 7.0 | 0.00 | 0.53 | 0.21 | 71 | 1007.8 |
| 20260507181059 | 72 | 96 | 0.0 | 8.0 | 0.00 | 0.53 | 0.21 | 72 | 1007.9 |
| 20260507180559 | 73 | 96 | 4.0 | 10.0 | 0.00 | 0.53 | 0.21 | 71 | 1007.8 |
| 20260507180058 | 73 | 96 | 4.0 | 12.0 | 0.00 | 0.53 | 0.21 | 72 | 1007.6 |
| 20260507175558 | 73 | 96 | 6.0 | 12.0 | 0.00 | 0.53 | 0.21 | 71 | 1007.6 |
| 20260507175058 | 73 | 96 | 5.0 | 11.0 | 0.00 | 0.53 | 0.21 | 71 | 1007.6 |
| 20260507174602 | 72 | 96 | 2.0 | 12.0 | 0.00 | 0.53 | 0.21 | 74 | 1007.6 |
| 20260507174058 | 71 | 96 | 7.0 | 12.0 | 0.00 | 0.53 | 0.21 | 74 | 1007.5 |
| 20260507173558 | 72 | 96 | 4.0 | 15.0 | 0.00 | 0.53 | 0.21 | 73 | 1007.7 |
| 20260507173100 | 73 | 96 | 2.0 | 7.0 | 0.00 | 0.53 | 0.21 | 76 | 1007.6 |
| 20260507172058 | 73 | 96 | 2.0 | 8.0 | 0.00 | 0.53 | 0.21 | 76 | 1007.6 |
| 20260507171604 | 72 | 96 | 2.0 | 11.0 | 0.00 | 0.54 | 0.21 | 77 | 1007.7 |
| 20260507171056 | 73 | 96 | 5.0 | 11.0 | 0.00 | 0.54 | 0.21 | 76 | 1007.7 |
| 20260507170600 | 72 | 96 | 3.0 | 9.0 | 0.00 | 0.54 | 0.21 | 77 | 1007.8 |
| 20260507170056 | 72 | 96 | 5.0 | 9.0 | 0.00 | 0.54 | 0.21 | 76 | 1007.7 |
| 20260507165555 | 73 | 96 | 1.0 | 7.0 | 0.00 | 0.54 | 0.21 | 75 | 1007.8 |
| 20260507165054 | 73 | 96 | 4.0 | 9.0 | 0.00 | 0.54 | 0.21 | 73 | 1007.7 |
| 20260507164554 | 72 | 96 | 4.0 | 9.0 | 0.00 | 0.54 | 0.21 | 75 | 1007.9 |
| 20260507164053 | 73 | 96 | 2.0 | 9.0 | 0.00 | 0.54 | 0.21 | 76 | 1008.1 |
| 20260507163553 | 73 | 96 | 5.0 | 9.0 | 0.00 | 0.54 | 0.21 | 76 | 1008.3 |
| 20260507163052 | 73 | 96 | 3.0 | 8.0 | 0.00 | 0.54 | 0.21 | 76 | 1008.3 |
| 20260507162052 | 73 | 96 | 0.0 | 7.0 | 0.00 | 0.54 | 0.21 | 76 | 1008.4 |
| 20260507161601 | 72 | 96 | 1.0 | 7.0 | 0.00 | 0.63 | 0.21 | 77 | 1008.5 |
| 20260507161049 | 71 | 96 | 3.0 | 10.0 | 0.00 | 0.63 | 0.21 | 76 | 1008.6 |
| 20260507160548 | 71 | 96 | 5.0 | 10.0 | 0.00 | 0.63 | 0.21 | 77 | 1008.7 |
| 20260507160047 | 70 | 96 | 2.0 | 8.0 | 0.00 | 0.63 | 0.21 | 83 | 1008.8 |
| 20260507155545 | 69 | 96 | 4.0 | 8.0 | 0.00 | 0.63 | 0.21 | 83 | 1008.8 |
| 20260507155044 | 68 | 96 | 1.0 | 9.0 | 0.00 | 0.63 | 0.21 | 85 | 1008.8 |
| 20260507154545 | 68 | 96 | 5.0 | 9.0 | 0.00 | 0.63 | 0.21 | 85 | 1008.8 |
| 20260507154043 | 68 | 96 | 4.0 | 10.0 | 0.00 | 0.63 | 0.21 | 86 | 1008.8 |
| 20260507153543 | 68 | 96 | 4.0 | 10.0 | 0.00 | 0.63 | 0.21 | 87 | 1008.7 |
| 20260507153052 | 67 | 96 | 1.0 | 9.0 | 0.00 | 0.63 | 0.21 | 89 | 1008.6 |
| 20260507152043 | 67 | 96 | 0.0 | 9.0 | 0.00 | 0.63 | 0.21 | 91 | 1008.5 |
| 20260507151542 | 66 | 96 | 3.0 | 9.0 | 0.00 | 0.63 | 0.21 | 90 | 1008.4 |
| 20260507151041 | 66 | 96 | 2.0 | 7.0 | 0.00 | 0.63 | 0.21 | 91 | 1008.1 |
| 20260507150539 | 66 | 96 | 2.0 | 7.0 | 0.00 | 0.63 | 0.21 | 91 | 1008.4 |
| 20260507150046 | 65 | 96 | 3.0 | 10.0 | 0.00 | 0.63 | 0.21 | 92 | 1008.5 |
| 20260507145538 | 65 | 96 | 6.0 | 10.0 | 0.00 | 0.63 | 0.21 | 92 | 1008.6 |
| 20260507145036 | 65 | 96 | 3.0 | 10.0 | 0.00 | 0.63 | 0.21 | 94 | 1008.6 |
| 20260507144535 | 65 | 96 | 6.0 | 10.0 | 0.00 | 0.63 | 0.21 | 94 | 1008.8 |
| 20260507144034 | 64 | 96 | 6.0 | 10.0 | 0.00 | 0.63 | 0.21 | 95 | 1009.0 |
| 20260507143533 | 64 | 96 | 6.0 | 10.0 | 0.00 | 0.63 | 0.21 | 96 | 1009.3 |
| 20260507143032 | 64 | 96 | 3.0 | 9.0 | 0.00 | 0.63 | 0.21 | 97 | 1009.1 |
| 20260507142029 | 63 | 96 | 2.0 | 6.0 | 0.00 | 0.63 | 0.21 | 98 | 1009.1 |
| 20260507141529 | 63 | 96 | 1.0 | 6.0 | 0.00 | 0.63 | 0.21 | 98 | 1009.1 |
| 20260507141028 | 63 | 96 | 2.0 | 4.0 | 0.00 | 0.63 | 0.21 | 98 | 1009.3 |
| 20260507140531 | 62 | 96 | 2.0 | 4.0 | 0.00 | 0.63 | 0.21 | 98 | 1009.3 |
| 20260507140031 | 62 | 96 | 1.0 | 4.0 | 0.00 | 0.63 | 0.21 | 98 | 1009.4 |
| 20260507135532 | 62 | 96 | 0.0 | 2.0 | 0.00 | 0.63 | 0.21 | 98 | 1009.5 |
| 20260507135026 | 62 | 96 | 0.0 | 3.0 | 0.00 | 0.63 | 0.21 | 98 | 1009.6 |
| 20260507134526 | 62 | 96 | 1.0 | 3.0 | 0.00 | 0.63 | 0.21 | 98 | 1009.4 |
| 20260507134028 | 62 | 96 | 1.0 | 3.0 | 0.00 | 0.63 | 0.21 | 98 | 1009.5 |
| 20260507133530 | 62 | 96 | 0.0 | 4.0 | 0.00 | 0.63 | 0.21 | 98 | 1009.3 |
| 20260507133026 | 62 | 96 | 2.0 | 4.0 | 0.00 | 0.63 | 0.21 | 98 | 1009.1 |
| 20260507132025 | 62 | 96 | 0.0 | 2.0 | 0.00 | 0.63 | 0.21 | 99 | 1009.5 |
| 20260507131528 | 62 | 96 | 0.0 | 6.0 | 0.00 | 0.63 | 0.21 | 98 | 1009.2 |
| 20260507131026 | 62 | 96 | 2.0 | 6.0 | 0.00 | 0.63 | 0.21 | 98 | 1009.4 |
| 20260507130527 | 62 | 96 | 0.0 | 2.0 | 0.01 | 0.63 | 0.21 | 98 | 1009.3 |
| 20260507130042 | 62 | 96 | 0.0 | 2.0 | 0.01 | 0.63 | 0.21 | 98 | 1009.1 |
| 20260507125528 | 62 | 96 | 0.0 | 2.0 | 0.01 | 0.63 | 0.21 | 99 | 1009.1 |
| 20260507125024 | 62 | 96 | 0.0 | 2.0 | 0.02 | 0.63 | 0.21 | 98 | 1009.1 |
| 20260507124524 | 62 | 96 | 0.0 | 2.0 | 0.03 | 0.63 | 0.21 | 98 | 1009.0 |
| 20260507124026 | 62 | 96 | 0.0 | 1.0 | 0.03 | 0.63 | 0.21 | 98 | 1009.0 |
| 20260507123524 | 62 | 96 | 0.0 | 1.0 | 0.04 | 0.63 | 0.21 | 98 | 1008.9 |
| 20260507123025 | 62 | 96 | 0.0 | 1.0 | 0.10 | 0.63 | 0.21 | 98 | 1008.9 |
| 20260507122024 | 62 | 96 | 0.0 | 2.0 | 0.12 | 0.63 | 0.21 | 98 | 1009.0 |
| 20260507121524 | 62 | 96 | 0.0 | 2.0 | 0.13 | 0.63 | 0.21 | 98 | 1009.2 |
| 20260507121024 | 62 | 96 | 1.0 | 4.0 | 0.14 | 0.63 | 0.21 | 98 | 1009.1 |
| 20260507120533 | 62 | 96 | 0.0 | 3.0 | 0.14 | 0.63 | 0.21 | 98 | 1009.4 |
| 20260507120033 | 62 | 96 | 1.0 | 3.0 | 0.14 | 0.62 | 0.20 | 98 | 1009.8 |
| 20260507115524 | 61 | 96 | 0.0 | 1.0 | 0.14 | 0.62 | 0.20 | 98 | 1009.8 |
| 20260507115027 | 61 | 96 | 0.0 | 0.0 | 0.14 | 0.62 | 0.20 | 98 | 1009.8 |
| 20260507114523 | 61 | 96 | 0.0 | 1.0 | 0.13 | 0.61 | 0.19 | 98 | 1009.8 |
| 20260507114023 | 61 | 96 | 0.0 | 1.0 | 0.13 | 0.60 | 0.18 | 98 | 1010.0 |
| 20260507113525 | 61 | 96 | 0.0 | 4.0 | 0.14 | 0.60 | 0.18 | 98 | 1010.3 |
| 20260507113023 | 61 | 96 | 2.0 | 6.0 | 0.12 | 0.57 | 0.16 | 98 | 1010.6 |
| 20260507112022 | 62 | 96 | 2.0 | 7.0 | 0.06 | 0.52 | 0.10 | 98 | 1010.8 |
| 20260507111523 | 62 | 96 | 2.0 | 7.0 | 0.05 | 0.51 | 0.09 | 98 | 1011.0 |
| 20260507111021 | 62 | 96 | 2.0 | 4.0 | 0.04 | 0.50 | 0.08 | 98 | 1010.6 |
| 20260507110522 | 62 | 96 | 1.0 | 2.0 | 0.03 | 0.49 | 0.07 | 98 | 1009.9 |
| 20260507110025 | 62 | 96 | 0.0 | 1.0 | 0.02 | 0.48 | 0.06 | 98 | 1009.7 |
| 20260507105521 | 62 | 96 | 0.0 | 2.0 | 0.02 | 0.48 | 0.06 | 98 | 1009.8 |
| 20260507105022 | 62 | 96 | 0.0 | 2.0 | 0.02 | 0.48 | 0.06 | 98 | 1009.4 |
| 20260507104522 | 62 | 96 | 0.0 | 2.0 | 0.02 | 0.48 | 0.06 | 98 | 1009.5 |
| 20260507104021 | 62 | 96 | 0.0 | 1.0 | 0.02 | 0.48 | 0.06 | 98 | 1009.7 |
| 20260507103521 | 62 | 96 | 0.0 | 6.0 | 0.01 | 0.47 | 0.05 | 98 | 1009.8 |
| 20260507103022 | 62 | 96 | 2.0 | 4.0 | 0.00 | 0.46 | 0.04 | 98 | 1010.0 |
| 20260507102021 | 62 | 96 | 0.0 | 2.0 | 0.00 | 0.46 | 0.04 | 98 | 1009.8 |
| 20260507101532 | 62 | 96 | 0.0 | 3.0 | 0.00 | 0.46 | 0.04 | 98 | 1009.4 |
| 20260507101023 | 62 | 96 | 1.0 | 3.0 | 0.00 | 0.46 | 0.04 | 98 | 1009.3 |
| 20260507100520 | 62 | 96 | 0.0 | 1.0 | 0.00 | 0.46 | 0.04 | 98 | 1009.3 |
| 20260507100023 | 62 | 96 | 0.0 | 1.0 | 0.00 | 0.46 | 0.04 | 98 | 1009.2 |
| 20260507095520 | 62 | 96 | 0.0 | 1.0 | 0.00 | 0.46 | 0.04 | 98 | 1009.0 |
| 20260507095020 | 62 | 96 | 0.0 | 1.0 | 0.00 | 0.46 | 0.04 | 98 | 1009.1 |
| 20260507094519 | 62 | 96 | 0.0 | 2.0 | 0.00 | 0.46 | 0.04 | 98 | 1009.2 |
| 20260507094020 | 62 | 96 | 0.0 | 2.0 | 0.00 | 0.46 | 0.04 | 98 | 1009.4 |
| 20260507093523 | 62 | 96 | 0.0 | 1.0 | 0.00 | 0.46 | 0.04 | 98 | 1009.4 |
| 20260507093019 | 62 | 96 | 0.0 | 4.0 | 0.00 | 0.46 | 0.04 | 98 | 1009.6 |
| 20260507092017 | 62 | 96 | 2.0 | 4.0 | 0.00 | 0.46 | 0.04 | 98 | 1009.6 |
| 20260507091519 | 62 | 96 | 1.0 | 4.0 | 0.00 | 0.46 | 0.04 | 98 | 1009.3 |
| 20260507091017 | 62 | 96 | 2.0 | 4.0 | 0.00 | 0.46 | 0.04 | 98 | 1009.5 |
| 20260507090519 | 62 | 96 | 1.0 | 3.0 | 0.00 | 0.46 | 0.04 | 98 | 1009.4 |
| 20260507090015 | 62 | 96 | 0.0 | 2.0 | 0.00 | 0.46 | 0.04 | 98 | 1009.4 |
| 20260507085515 | 62 | 96 | 0.0 | 2.0 | 0.00 | 0.46 | 0.04 | 98 | 1009.6 |
| 20260507085015 | 62 | 96 | 0.0 | 2.0 | 0.00 | 0.46 | 0.04 | 98 | 1009.6 |
| 20260507084515 | 62 | 96 | 0.0 | 2.0 | 0.00 | 0.46 | 0.04 | 98 | 1009.8 |
| 20260507084015 | 62 | 96 | 0.0 | 2.0 | 0.00 | 0.46 | 0.04 | 98 | 1009.7 |
| 20260507083515 | 62 | 96 | 0.0 | 2.0 | 0.00 | 0.46 | 0.04 | 98 | 1009.5 |
| 20260507083015 | 62 | 96 | 1.0 | 4.0 | 0.00 | 0.46 | 0.04 | 98 | 1009.4 |
| 20260507082013 | 62 | 96 | 0.0 | 2.0 | 0.00 | 0.46 | 0.04 | 98 | 1009.7 |
| 20260507081517 | 62 | 96 | 0.0 | 2.0 | 0.00 | 0.46 | 0.04 | 98 | 1010.1 |
| 20260507081013 | 62 | 96 | 1.0 | 2.0 | 0.00 | 0.46 | 0.04 | 98 | 1010.3 |
| 20260507080514 | 63 | 96 | 0.0 | 1.0 | 0.00 | 0.46 | 0.04 | 98 | 1010.0 |
| 20260507080014 | 62 | 96 | 0.0 | 1.0 | 0.00 | 0.46 | 0.04 | 98 | 1009.7 |
| 20260507075514 | 62 | 96 | 0.0 | 1.0 | 0.00 | 0.46 | 0.04 | 98 | 1009.8 |
| 20260507075013 | 62 | 96 | 0.0 | 3.0 | 0.00 | 0.46 | 0.04 | 98 | 1009.8 |
| 20260507074512 | 62 | 96 | 1.0 | 4.0 | 0.00 | 0.46 | 0.04 | 98 | 1009.4 |
| 20260507074012 | 62 | 96 | 1.0 | 6.0 | 0.00 | 0.46 | 0.04 | 98 | 1009.7 |
| 20260507073512 | 62 | 96 | 3.0 | 6.0 | 0.00 | 0.46 | 0.04 | 98 | 1009.9 |
| 20260507073012 | 62 | 96 | 2.0 | 6.0 | 0.00 | 0.46 | 0.04 | 98 | 1009.8 |
| 20260507072014 | 62 | 96 | 2.0 | 6.0 | 0.00 | 0.46 | 0.04 | 98 | 1009.7 |
| 20260507071514 | 62 | 96 | 3.0 | 6.0 | 0.00 | 0.46 | 0.04 | 98 | 1009.9 |
| 20260507071012 | 62 | 96 | 1.0 | 6.0 | 0.00 | 0.46 | 0.04 | 98 | 1009.8 |
| 20260507070512 | 62 | 96 | 1.0 | 6.0 | 0.00 | 0.46 | 0.04 | 98 | 1010.1 |
| 20260507070013 | 62 | 96 | 1.0 | 6.0 | 0.00 | 0.46 | 0.04 | 98 | 1010.0 |
| 20260507065511 | 62 | 96 | 2.0 | 6.0 | 0.00 | 0.46 | 0.04 | 98 | 1010.3 |
| 20260507065013 | 62 | 96 | 1.0 | 3.0 | 0.00 | 0.46 | 0.04 | 98 | 1010.1 |
| 20260507064511 | 62 | 96 | 1.0 | 7.0 | 0.00 | 0.46 | 0.04 | 98 | 1010.3 |
| 20260507064010 | 62 | 96 | 2.0 | 9.0 | 0.00 | 0.46 | 0.04 | 98 | 1010.5 |
| 20260507063509 | 62 | 96 | 4.0 | 9.0 | 0.01 | 0.46 | 0.04 | 98 | 1010.3 |
| 20260507063010 | 62 | 96 | 6.0 | 9.0 | 0.03 | 0.46 | 0.04 | 98 | 1010.8 |
| 20260507062005 | 62 | 96 | 4.0 | 9.0 | 0.04 | 0.46 | 0.04 | 98 | 1010.7 |
| 20260507061505 | 62 | 96 | 5.0 | 9.0 | 0.05 | 0.46 | 0.04 | 98 | 1011.1 |
| 20260507061003 | 62 | 96 | 3.0 | 9.0 | 0.05 | 0.46 | 0.04 | 98 | 1011.1 |
| 20260507060507 | 62 | 96 | 3.0 | 7.0 | 0.05 | 0.46 | 0.04 | 98 | 1011.0 |
| 20260507060012 | 63 | 96 | 2.0 | 4.0 | 0.05 | 0.46 | 0.04 | 98 | 1011.0 |
| 20260507055502 | 63 | 96 | 1.0 | 3.0 | 0.06 | 0.46 | 0.04 | 98 | 1011.1 |
| 20260507055001 | 63 | 96 | 1.0 | 3.0 | 0.06 | 0.46 | 0.04 | 98 | 1011.4 |
| 20260507054501 | 63 | 96 | 1.0 | 3.0 | 0.07 | 0.46 | 0.04 | 98 | 1011.4 |
| 20260507054100 | 63 | 96 | 0.0 | 2.0 | 0.11 | 0.46 | 0.04 | 98 | 1011.7 |
| 20260507053559 | 63 | 96 | 0.0 | 4.0 | 0.12 | 0.46 | 0.04 | 98 | 1011.5 |
| 20260507053058 | 63 | 96 | 1.0 | 7.0 | 0.11 | 0.45 | 0.03 | 98 | 1012.0 |
| 20260507052059 | 63 | 96 | 1.0 | 3.0 | 0.09 | 0.42 | 0.00 | 98 | 1012.2 |
| 20260507051601 | 63 | 96 | 0.0 | 2.0 | 0.10 | 0.42 | 0.42 | 98 | 1011.9 |
| 20260507051059 | 63 | 96 | 0.0 | 2.0 | 0.09 | 0.41 | 0.41 | 98 | 1012.3 |
| 20260507050603 | 63 | 96 | 0.0 | 2.0 | 0.09 | 0.41 | 0.41 | 98 | 1012.1 |
| 20260507050059 | 63 | 96 | 0.0 | 3.0 | 0.09 | 0.41 | 0.41 | 98 | 1012.0 |
| 20260507045559 | 63 | 96 | 2.0 | 3.0 | 0.09 | 0.41 | 0.41 | 98 | 1012.1 |
| 20260507045057 | 63 | 96 | 0.0 | 6.0 | 0.08 | 0.40 | 0.40 | 98 | 1012.4 |
| 20260507044557 | 63 | 96 | 3.0 | 6.0 | 0.07 | 0.39 | 0.39 | 98 | 1012.7 |
| 20260507044059 | 63 | 96 | 1.0 | 3.0 | 0.06 | 0.38 | 0.38 | 98 | 1012.5 |
| 20260507043555 | 63 | 96 | 1.0 | 3.0 | 0.02 | 0.34 | 0.34 | 98 | 1012.7 |
| 20260507043055 | 63 | 96 | 0.0 | 2.0 | 0.02 | 0.34 | 0.34 | 98 | 1012.4 |
| 20260507042054 | 63 | 96 | 0.0 | 2.0 | 0.02 | 0.34 | 0.34 | 98 | 1012.2 |
| 20260507041555 | 63 | 96 | 0.0 | 6.0 | 0.01 | 0.33 | 0.33 | 98 | 1012.4 |
| 20260507041054 | 63 | 96 | 3.0 | 6.0 | 0.00 | 0.32 | 0.32 | 98 | 1013.1 |
| 20260507040554 | 63 | 96 | 1.0 | 3.0 | 0.00 | 0.32 | 0.32 | 98 | 1012.2 |
| 20260507040054 | 64 | 96 | 0.0 | 0.0 | 0.00 | 0.32 | 0.32 | 98 | 1012.0 |
| 20260507035554 | 64 | 96 | 0.0 | 4.0 | 0.00 | 0.32 | 0.32 | 98 | 1012.1 |
| 20260507035054 | 63 | 96 | 1.0 | 4.0 | 0.00 | 0.32 | 0.32 | 98 | 1012.1 |
| 20260507034555 | 64 | 96 | 1.0 | 3.0 | 0.00 | 0.32 | 0.32 | 98 | 1012.1 |
| 20260507034053 | 64 | 96 | 0.0 | 4.0 | 0.00 | 0.32 | 0.32 | 97 | 1012.1 |
| 20260507033553 | 64 | 96 | 1.0 | 4.0 | 0.00 | 0.32 | 0.32 | 97 | 1012.0 |
| 20260507033054 | 64 | 96 | 1.0 | 3.0 | 0.00 | 0.32 | 0.32 | 97 | 1012.1 |
| 20260507032055 | 64 | 96 | 1.0 | 6.0 | 0.01 | 0.32 | 0.32 | 97 | 1012.2 |
| 20260507031553 | 64 | 96 | 1.0 | 6.0 | 0.01 | 0.32 | 0.32 | 98 | 1012.2 |
| 20260507031056 | 64 | 96 | 2.0 | 7.0 | 0.01 | 0.32 | 0.32 | 97 | 1012.1 |
| 20260507030552 | 64 | 96 | 4.0 | 7.0 | 0.01 | 0.32 | 0.32 | 97 | 1011.8 |
| 20260507030052 | 64 | 96 | 1.0 | 7.0 | 0.01 | 0.32 | 0.32 | 98 | 1011.7 |
| 20260507025554 | 64 | 96 | 3.0 | 7.0 | 0.01 | 0.32 | 0.32 | 97 | 1011.6 |
| 20260507025055 | 64 | 96 | 1.0 | 6.0 | 0.01 | 0.32 | 0.32 | 97 | 1011.5 |
| 20260507024603 | 64 | 96 | 1.0 | 7.0 | 0.01 | 0.32 | 0.32 | 98 | 1011.4 |
| 20260507024051 | 64 | 96 | 2.0 | 7.0 | 0.01 | 0.32 | 0.32 | 97 | 1011.3 |
| 20260507023557 | 64 | 96 | 2.0 | 15.0 | 0.02 | 0.32 | 0.32 | 97 | 1011.1 |
| 20260507023051 | 64 | 96 | 4.0 | 15.0 | 0.02 | 0.32 | 0.32 | 97 | 1009.4 |
| 20260507022054 | 65 | 96 | 5.0 | 7.0 | 0.01 | 0.31 | 0.31 | 97 | 1012.2 |
| 20260507021550 | 65 | 96 | 3.0 | 6.0 | 0.01 | 0.31 | 0.31 | 97 | 1013.1 |
| 20260507021050 | 65 | 96 | 2.0 | 3.0 | 0.01 | 0.31 | 0.31 | 97 | 1013.5 |
| 20260507020550 | 65 | 96 | 0.0 | 1.0 | 0.02 | 0.31 | 0.31 | 97 | 1013.1 |
| 20260507020106 | 65 | 96 | 0.0 | 1.0 | 0.03 | 0.31 | 0.31 | 97 | 1012.7 |
| 20260507015549 | 65 | 96 | 0.0 | 1.0 | 0.04 | 0.31 | 0.31 | 97 | 1012.7 |
| 20260507015049 | 65 | 96 | 0.0 | 1.0 | 0.04 | 0.31 | 0.31 | 97 | 1012.4 |
| 20260507014602 | 65 | 96 | 0.0 | 1.0 | 0.04 | 0.31 | 0.31 | 97 | 1012.4 |
| 20260507014049 | 65 | 96 | 0.0 | 2.0 | 0.04 | 0.31 | 0.31 | 97 | 1012.2 |
| 20260507013550 | 65 | 96 | 0.0 | 2.0 | 0.04 | 0.31 | 0.31 | 97 | 1012.3 |
| 20260507013052 | 65 | 96 | 1.0 | 3.0 | 0.03 | 0.30 | 0.30 | 97 | 1012.3 |
| 20260507012049 | 65 | 96 | 1.0 | 3.0 | 0.07 | 0.30 | 0.30 | 97 | 1012.2 |
| 20260507011549 | 65 | 96 | 0.0 | 2.0 | 0.09 | 0.30 | 0.30 | 96 | 1011.8 |
| 20260507011049 | 65 | 96 | 0.0 | 4.0 | 0.11 | 0.30 | 0.30 | 96 | 1011.7 |
| 20260507010549 | 65 | 96 | 0.0 | 9.0 | 0.12 | 0.30 | 0.30 | 96 | 1011.7 |
| 20260507010049 | 65 | 96 | 3.0 | 11.0 | 0.13 | 0.28 | 0.28 | 96 | 1012.3 |
| 20260507005548 | 66 | 96 | 3.0 | 11.0 | 0.12 | 0.28 | 0.28 | 96 | 1012.7 |
| 20260507005049 | 66 | 96 | 5.0 | 12.0 | 0.12 | 0.27 | 0.27 | 96 | 1012.8 |
| 20260507004548 | 65 | 96 | 6.0 | 11.0 | 0.14 | 0.27 | 0.27 | 96 | 1012.2 |
| 20260507004047 | 66 | 96 | 6.0 | 9.0 | 0.15 | 0.27 | 0.27 | 96 | 1011.7 |
| 20260507003547 | 66 | 96 | 3.0 | 8.0 | 0.16 | 0.27 | 0.27 | 96 | 1011.3 |
| 20260507003047 | 66 | 96 | 4.0 | 8.0 | 0.17 | 0.27 | 0.27 | 95 | 1010.9 |
| 20260507002047 | 66 | 96 | 1.0 | 8.0 | 0.15 | 0.25 | 0.25 | 94 | 1010.7 |
| 20260507001548 | 66 | 96 | 2.0 | 8.0 | 0.12 | 0.22 | 0.22 | 94 | 1011.5 |
| 20260507001046 | 67 | 96 | 2.0 | 8.0 | 0.10 | 0.20 | 0.20 | 94 | 1011.5 |
| 20260507000547 | 67 | 96 | 1.0 | 7.0 | 0.08 | 0.18 | 0.18 | 93 | 1011.7 |
| 20260507000046 | 67 | 96 | 2.0 | 7.0 | 0.07 | 0.17 | 0.17 | 93 | 1011.7 |
| 20260506235546 | 67 | 96 | 2.0 | 8.0 | 0.06 | 0.16 | 0.16 | 93 | 1011.8 |
| 20260506235048 | 67 | 96 | 2.0 | 8.0 | 0.05 | 0.15 | 0.15 | 92 | 1012.0 |
| 20260506234551 | 67 | 96 | 2.0 | 7.0 | 0.04 | 0.14 | 0.14 | 92 | 1011.8 |
| 20260506234044 | 67 | 96 | 3.0 | 10.0 | 0.03 | 0.13 | 0.13 | 91 | 1011.7 |
| 20260506233544 | 68 | 96 | 3.0 | 10.0 | 0.01 | 0.11 | 0.11 | 91 | 1011.8 |
| 20260506233045 | 68 | 96 | 3.0 | 8.0 | 0.00 | 0.10 | 0.10 | 91 | 1012.2 |